Orbital Elements at Epoch 2459000.5 (2020-May-31.0) TDB
Reference: JPL 35 (heliocentric ecliptic J2000)
Element | Value | Uncertainty (1-sigma) | Units |
e | .08908265289924873 | 4.118e-08 | |
a | 2.989307642021815 | 1.8747e-08 | au |
q | 2.723012186938514 | 1.2137e-07 | au |
i | 11.40759866014886 | 5.1306e-06 | deg |
node | 155.4662966762816 | 2.2178e-05 | deg |
peri | 149.8335733124752 | 3.6263e-05 | deg |
M | 177.1673831585347 | 3.022e-05 | deg |
tp | 2458071.457428383692 (2017-Nov-13.95742838) | 0.00015597 | TDB |
period | 1887.792887264075 5.17 | 1.7759e-05 4.862e-08 | d yr |
n | .1906988856821777 | 1.7939e-09 | deg/d |
Q | 3.255603097105117 | 2.0417e-08 | au |
|
| | Orbit Determination Parameters
Additional Information
|